Miscellaneous Local Product
Issued by NWS North Platte, NE

Home | Current Version | Previous Version | Text Only | Print | Product List | Glossary On
Versions: 1 2 3 4 5 6 7 8 9 10 11 12 13 14 15 16 17 18 19 20 21 22 23 24 25 26 27 28 29 30 31 32 33 34 35 36 37 38 39 40 41 42 43 44 45 46 47 48 49 50
270
AXUS43 KLBF 211710
MISLBF


WESTERN AND NORTH CENTRAL NEBRASKA HOURLY WEATHER ROUNDUP
NATIONAL WEATHER SERVICE NORTH PLATTE NE
1200 PM CDT FRI JUL 21 2017

NOTE: "FAIR" INDICATES FEW OR NO CLOUDS BELOW 12,000 FEET WITH NO
SIGNIFICANT WEATHER AND/OR OBSTRUCTIONS TO VISIBILITY.

NOTE: STATIONS NOT REPORTING VARIABLES SUCH AS SKY/WEATHER OR
PRESSURE ARE PROVIDED BY RAWS AND APRS NETWORKS AND ARE NOT UNDER
NATIONAL WEATHER SERVICE QUALITY CONTROL.

...OBSERVATIONS IN AND NEAR THE EASTERN PANHANDLE OF NEBRASKA...

CITY           SKY/WX    TMP DP  RH WIND       PRES   REMARKS
PINE RIDGE     SUNNY     87  62  43 W14G20    29.93R
GORDON         FAIR      84  61  44 W12G20    29.94S
CHADRON        SUNNY     89  52  28 NW17G26   29.94R
ALLIANCE       SUNNY     87  57  35 W12       29.99S
SIDNEY         SUNNY     91  54  28 N10       30.05R
CRESCENT LAKE    N/A     89  55  31 NW9         N/A
$$

...OBSERVATIONS IN NORTHERN NEBRASKA AND FAR SOUTHERN SOUTH DAKOTA...

CITY           SKY/WX    TMP DP  RH WIND       PRES   REMARKS
WINNER         FAIR      91  72  53 CALM      29.83S HX  98
VALENTINE      SUNNY     93  66  40 NW10      29.85S HX  96
THEDFORD       SUNNY     93  65  39 W14       29.89S HX  95
AINSWORTH      SUNNY     90  73  56 W7        29.85S HX  98
O`NEILL        MOSUNNY   86  68  55 CALM      29.83R
ORD            SUNNY     90  70  51 CALM      29.81S HX  95
BROKEN BOW     SUNNY     93  74  53 W7        29.85S HX 103
VALENTINE NWR    N/A     86  71  60 W9G16       N/A  HX  91
HALSEY           N/A     91  71  52 W6          N/A  HX  97
BUTTE            N/A     81  71  72 MISG        N/A
CHAMBERS         N/A     91  72  53 CALM        N/A  HX  98
EWING            N/A     87  74  64 S5          N/A  HX  95
$$

...OBSERVATIONS IN SOUTHWEST NEBRASKA AND FAR NORTHEAST COLORADO...

CITY           SKY/WX    TMP DP  RH WIND       PRES   REMARKS
HOLYOKE        FAIR      97  52  21 N10G16    30.00R HX  94
IMPERIAL       SUNNY     94  54  25 N10       29.96R HX  92
OGALLALA       SUNNY     95  54  24 W9        29.95S HX  93
NORTH PLATTE   SUNNY     93  71  48 W6        29.89S HX 100
MCCOOK         SUNNY     96  68  39 W5        29.88R HX 101
LEXINGTON      SUNNY     86  72  62 CALM      29.87R HX  93
STAPLETON        N/A     93  70  46 CALM        N/A  HX  98
GOTHENBURG       N/A     89  68  49 NW3         N/A  HX  92
CALLAWAY         N/A     90  76  63 CALM        N/A  HX 101
$$

...OBSERVATIONS IN CENTRAL LINCOLN COUNTY AREA...

CITY           SKY/WX    TMP DP  RH WIND       PRES   REMARKS
N.P. AIRPORT   SUNNY     93  71  48 W6        29.89S HX 100
N.P. DOWNTOWN    N/A     92  69  47 N3          N/A  HX  97
N.P. SOUTHEAST   N/A     92  70  48 NW3         N/A  HX  97
N.P. HILLCREST   N/A     91  69  48 NW6         N/A  HX  95
$$

...SOME OBSERVATIONS FROM AROUND THE REGION...

CITY           SKY/WX    TMP DP  RH WIND       PRES   REMARKS
DENVER         MOSUNNY   87  48  25 S6        30.13S
LIMON          SUNNY     86  54  33 N7        30.14S
ASPEN          CLOUDY    76  49  38 VRB3      30.34F
LARAMIE        CLOUDY    76  48  37 N5        30.29S
CASPER         SUNNY     80  50  34 VRB7      30.14S
CHEYENNE       SUNNY     81  45  28 NW12      30.19R
SCOTTSBLUFF    SUNNY     87  56  34 W10       30.02R
GRAND ISLAND   SUNNY     89  68  49 S16       29.83R HX  93
OMAHA          MOSUNNY   95  71  45 S14       29.80S HX 102
SIOUX FALLS    CLOUDY    78  71  79 S12       29.81R
RAPID CITY     MOSUNNY   86  58  38 NW14      29.91R
BISMARCK       MOSUNNY   82  65  56 CALM      29.84F
KANSAS CITY    MOSUNNY   92  75  57 S15       29.93F HX 103
HILL CITY      SUNNY     98  60  28 SW10      29.87F HX  98
WICHITA        SUNNY     96  69  41 S20       29.93F HX 102
DODGE CITY     SUNNY     97  60  29 SW14      29.95F HX  97
OKLAHOMA CITY  MOSUNNY   95  67  39 S13G22    29.98F HX  99
DALLAS         MOSUNNY   95  72  47 S12       30.00F HX 103
AMARILLO       SUNNY     91  57  31 SW17      30.11S
$$




USA.gov is the U.S. government's official web portal to all federal, state and local government web resources and services.